Grand Junction, CO

8:24 PM MST on December 04, 2016 (GMT -0700)
Walker

Weather History for KGJT - November, 2011

Change the Weather History Date:

Tuesday, November 22, 2011

  Actual Average Record
Temperature  
Mean Temperature 42 °F 36 °F  
Max Temperature 53 °F 47 °F 63 °F (1966)
Min Temperature 31 °F 25 °F 11 °F (1979)
Degree Days  
Heating Degree Days 23 29  
Month to date heating degree days 529 528  
Since 1 July heating degree days 904 976  
Cooling Degree Days 0 0  
Month to date cooling degree days 0 0  
Year to date cooling degree days 1222 1125  
Moisture  
Dew Point 31 °F    
Average Humidity 67    
Maximum Humidity 89    
Minimum Humidity 44    
Precipitation  
Precipitation 0.00 in 0.03 in 0.42 in (2013)
Month to date precipitation 0.55 0.56  
Year to date precipitation 9.41 8.66  
Snow  
Snow 0.00 in 0.10 in 3.80 in (1906)
Month to date snowfall T 1.3  
Since 1 July snowfall T 1.7  
Since 1 September snowfall T 1.7  
Snow Depth 0.00 in    
Sea Level Pressure  
Sea Level Pressure 30.29 in    
Wind  
Wind Speed 5 mph (East)    
Max Wind Speed 13 mph    
Max Gust Speed 14 mph    
Visibility 10 miles    
Events      
T = Trace of Precipitation, MM = Missing Value Source: NWS Daily Summary

Daily Weather History Graph

Daily Weather History Graph

Search for Another Location

Airport or City:

Trip Planner

Search our weather history database for the weather conditions in past years. The results will help you decide how hot, cold, wet, or windy it might be!

Date:

Astronomy

Nov. 22, 2011 Rise Set
Actual Time 7:04 AM MST 4:55 PM MST
Civil Twilight 6:35 AM MST 5:24 PM MST
Nautical Twilight 6:03 AM MST 5:57 PM MST
Astronomical Twilight 5:31 AM MST 6:28 PM MST
Moon 4:00 AM MST (11/22) 2:56 PM MST (11/22)
Length of Visible Light 10h 48m
Length of Day
9h 50m
Waning Crescent, 9% of the Moon is Illuminated
Nov 22
Waning Crescent
Nov 24
New
Dec 2
First Quarter
Dec 10
Full
Dec 17
Last Quarter

Hourly Weather History & Observations

Time (MST) Temp. Windchill Dew Point Humidity Pressure Visibility Wind Dir Wind Speed Gust Speed Precip Events Conditions
12:53 AM 34.0 °F 31.0 °F 28.9 °F 82% 30.17 in 10.0 mi East 3.5 mph - N/A   Partly Cloudy
1:53 AM 37.4 °F - 32.0 °F 81% 30.22 in 10.0 mi Calm Calm - N/A   Scattered Clouds
2:53 AM 32.0 °F - 28.9 °F 88% 30.22 in 10.0 mi Calm Calm - N/A   Clear
3:53 AM 37.0 °F 29.8 °F 32.0 °F 82% 30.20 in 10.0 mi ESE 10.4 mph - N/A   Clear
4:53 AM 34.0 °F 27.2 °F 30.9 °F 89% 30.23 in 10.0 mi ESE 8.1 mph - N/A   Clear
5:53 AM 36.0 °F 28.5 °F 32.0 °F 86% 30.25 in 10.0 mi ESE 10.4 mph - N/A   Clear
6:53 AM 36.0 °F 30.3 °F 32.0 °F 86% 30.29 in 10.0 mi ESE 6.9 mph - N/A   Partly Cloudy
7:53 AM 35.1 °F 32.2 °F 32.0 °F 89% 30.31 in 10.0 mi SE 3.5 mph - N/A   Clear
8:53 AM 41.0 °F 37.1 °F 33.8 °F 76% 30.33 in 10.0 mi SE 5.8 mph - N/A   Clear
9:53 AM 44.1 °F 41.5 °F 35.1 °F 71% 30.31 in 10.0 mi SSE 4.6 mph - N/A   Clear
10:53 AM 48.0 °F - 34.0 °F 58% 30.30 in 10.0 mi Calm Calm - N/A   Partly Cloudy
11:53 AM 50.0 °F - 34.0 °F 54% 30.28 in 10.0 mi West 3.5 mph - N/A   Clear
12:53 PM 51.1 °F - 33.1 °F 50% 30.27 in 10.0 mi WNW 4.6 mph - N/A   Partly Cloudy
1:53 PM 52.0 °F - 32.0 °F 47% 30.25 in 10.0 mi WNW 5.8 mph - N/A   Partly Cloudy
2:53 PM 53.1 °F - 32.0 °F 45% 30.26 in 10.0 mi NW 5.8 mph - N/A   Clear
3:53 PM 52.0 °F - 30.0 °F 43% 30.25 in 10.0 mi NW 6.9 mph - N/A   Clear
4:53 PM 50.0 °F - 30.0 °F 46% 30.28 in 10.0 mi Calm Calm - N/A   Clear
5:53 PM 43.0 °F 41.3 °F 28.9 °F 58% 30.31 in 10.0 mi NE 3.5 mph - N/A   Clear
6:53 PM 39.0 °F - 28.0 °F 65% 30.33 in 10.0 mi Calm Calm - N/A   Clear
7:53 PM 37.9 °F 33.5 °F 28.0 °F 68% 30.36 in 10.0 mi East 5.8 mph - N/A   Clear
8:53 PM 39.0 °F 35.7 °F 30.0 °F 70% 30.35 in 10.0 mi ENE 4.6 mph - N/A   Clear
9:53 PM 36.0 °F 33.3 °F 28.9 °F 76% 30.36 in 10.0 mi East 3.5 mph - N/A   Clear
10:53 PM 35.6 °F 29.2 °F 28.4 °F 75% 30.37 in 10.0 mi ESE 8.1 mph - N/A   Clear
11:53 PM 34.0 °F 29.8 °F 28.0 °F 79% 30.35 in 10.0 mi East 4.6 mph - N/A   Clear